"Platform","Spectacle Reef Light Station"
"NDBC ID","SRLM4"
"Latitude (deg)",45.77320
"Longitude (deg)",-84.13670
"Water Depth (m)",1.2
"Sensor Device","Campbell CR1000 Logger analog input"
"Sensor Type","Battery voltage"
"Sensor Units","voltage"
"Measurement","2 minute average of data samples taken at 5 second interval"
"Time means","Time at beginning of averaging period (UTC time zone)"

"Note:","This data was collected for research purposes."
"Note:","Minimal quality checking has been performed so data may contain known or unknown errors."
"Note:","Data provided by NOAA. Please credit NOAA."
"Note:","For more info see www.glerl.noaa.gov/res/recon"

"Time (UTC)","Battery"
"YYYY/MM/DD HH:MM","volts"
2024/05/12 00:02, 13.12412
2024/05/12 00:04, 13.15914
2024/05/12 00:06, 13.1945
2024/05/12 00:08, 13.1979
2024/05/12 00:10, 13.1895
2024/05/12 00:12, 13.18104
2024/05/12 00:14, 13.17081
2024/05/12 00:16, 13.15926
2024/05/12 00:18, 13.14867
2024/05/12 00:20, 13.13767
2024/05/12 00:22, 13.12785
2024/05/12 00:24, 13.11543
2024/05/12 00:26, 13.10481
2024/05/12 00:28, 13.09649
2024/05/12 00:30, 13.0833
2024/05/12 00:32, 13.06831
2024/05/12 00:34, 13.05697
2024/05/12 00:36, 13.03886
2024/05/12 00:38, 13.03139
2024/05/12 00:40, 13.01717
2024/05/12 00:42, 13.00259
2024/05/12 00:44, 12.98699
2024/05/12 00:46, 12.97558
2024/05/12 00:48, 12.96771
2024/05/12 00:50, 12.96125
2024/05/12 00:52, 12.954
2024/05/12 00:54, 12.94568
2024/05/12 00:56, 12.94038
2024/05/12 00:58, 12.93054
2024/05/12 01:00, 12.91972
2024/05/12 01:02, 12.78675
2024/05/12 01:04, 12.85115
2024/05/12 01:06, 12.88426
2024/05/12 01:08, 12.88952
2024/05/12 01:10, 12.88657
2024/05/12 01:12, 12.88537
2024/05/12 01:14, 12.88568
2024/05/12 01:16, 12.88157
2024/05/12 01:18, 12.8813
2024/05/12 01:20, 12.87869
2024/05/12 01:22, 12.8794
2024/05/12 01:24, 12.87785
2024/05/12 01:26, 12.87541
2024/05/12 01:28, 12.87464
2024/05/12 01:30, 12.87463
2024/05/12 01:32, 12.86989
2024/05/12 01:34, 12.87021
2024/05/12 01:36, 12.8639
2024/05/12 01:38, 12.86548
2024/05/12 01:40, 12.86547
2024/05/12 01:42, 12.86327
2024/05/12 01:44, 12.86264
2024/05/12 01:46, 12.86135
2024/05/12 01:48, 12.85973
2024/05/12 01:50, 12.8577
2024/05/12 01:52, 12.85803
2024/05/12 01:54, 12.85606
2024/05/12 01:56, 12.85249
2024/05/12 01:58, 12.75645
2024/05/12 02:00, 12.64426
2024/05/12 02:02, 12.62455
2024/05/12 02:04, 12.75293
2024/05/12 02:06, 12.63632
2024/05/12 02:08, 12.61351
2024/05/12 02:10, 12.59846
2024/05/12 02:12, 12.59776
2024/05/12 02:14, 12.60049
2024/05/12 02:16, 12.6068
2024/05/12 02:18, 12.60319
2024/05/12 02:20, 12.61958
2024/05/12 02:22, 12.62704
2024/05/12 02:24, 12.62399
2024/05/12 02:26, 12.62773
2024/05/12 02:28, 12.62596
2024/05/12 02:30, 12.62385
2024/05/12 02:32, 12.62178
2024/05/12 02:34, 12.62392
2024/05/12 02:36, 12.6075
2024/05/12 02:38, 12.6049
2024/05/12 02:40, 12.61561
2024/05/12 02:42, 12.61553
2024/05/12 02:44, 12.61375
2024/05/12 02:46, 12.61121
2024/05/12 02:48, 12.61252
2024/05/12 02:50, 12.60975
2024/05/12 02:52, 12.60916
2024/05/12 02:54, 12.60701
2024/05/12 02:56, 12.604
2024/05/12 02:58, 12.60608
2024/05/12 03:00, 12.59977
2024/05/12 03:02, 12.59424
2024/05/12 03:04, 12.71267
2024/05/12 03:06, 12.71606
2024/05/12 03:08, 12.60456
2024/05/12 03:10, 12.58867
2024/05/12 03:12, 12.74376
2024/05/12 03:14, 12.77583
2024/05/12 03:16, 12.78244
2024/05/12 03:18, 12.78663
2024/05/12 03:20, 12.7885
2024/05/12 03:22, 12.79183
2024/05/12 03:24, 12.7926
2024/05/12 03:26, 12.79302
2024/05/12 03:28, 12.79418
2024/05/12 03:30, 12.79282
2024/05/12 03:32, 12.79017
2024/05/12 03:34, 12.79027
2024/05/12 03:36, 12.7842
2024/05/12 03:38, 12.78837
2024/05/12 03:40, 12.78698
2024/05/12 03:42, 12.78523
2024/05/12 03:44, 12.78289
2024/05/12 03:46, 12.78318
2024/05/12 03:48, 12.78308
2024/05/12 03:50, 12.78247
2024/05/12 03:52, 12.77995
2024/05/12 03:54, 12.78048
2024/05/12 03:56, 12.77613
2024/05/12 03:58, 12.7785
2024/05/12 04:00, 12.77392
2024/05/12 04:02, 12.64564
2024/05/12 04:04, 12.70178
2024/05/12 04:06, 12.74928
2024/05/12 04:08, 12.7588
2024/05/12 04:10, 12.76388
2024/05/12 04:12, 12.76331
2024/05/12 04:14, 12.76558
2024/05/12 04:16, 12.76509
2024/05/12 04:18, 12.76673
2024/05/12 04:20, 12.76608
2024/05/12 04:22, 12.76186
2024/05/12 04:24, 12.7639
2024/05/12 04:26, 12.76206
2024/05/12 04:28, 12.761
2024/05/12 04:30, 12.7594
2024/05/12 04:32, 12.75464
2024/05/12 04:34, 12.75654
2024/05/12 04:36, 12.7487
2024/05/12 04:38, 12.75456
2024/05/12 04:40, 12.75498
2024/05/12 04:42, 12.75327
2024/05/12 04:44, 12.75428
2024/05/12 04:46, 12.75229
2024/05/12 04:48, 12.752
2024/05/12 04:50, 12.75042
2024/05/12 04:52, 12.7484
2024/05/12 04:54, 12.74841
2024/05/12 04:56, 12.74627
2024/05/12 04:58, 12.74778
2024/05/12 05:00, 12.73878
2024/05/12 05:02, 12.60529
2024/05/12 05:04, 12.67103
2024/05/12 05:06, 12.71838
2024/05/12 05:08, 12.73075
2024/05/12 05:10, 12.73305
2024/05/12 05:12, 12.7328
2024/05/12 05:14, 12.73249
2024/05/12 05:16, 12.73444
2024/05/12 05:18, 12.73382
2024/05/12 05:20, 12.73348
2024/05/12 05:22, 12.72945
2024/05/12 05:24, 12.73079
2024/05/12 05:26, 12.72715
2024/05/12 05:28, 12.72829
2024/05/12 05:30, 12.72714
2024/05/12 05:32, 12.72357
2024/05/12 05:34, 12.72505
2024/05/12 05:36, 12.71623
2024/05/12 05:38, 12.72304
2024/05/12 05:40, 12.72132
2024/05/12 05:42, 12.7209
2024/05/12 05:44, 12.72124
2024/05/12 05:46, 12.71943
2024/05/12 05:48, 12.72056
2024/05/12 05:50, 12.71655
2024/05/12 05:52, 12.71456
2024/05/12 05:54, 12.71483
2024/05/12 05:56, 12.71505
2024/05/12 05:58, 12.71365
2024/05/12 06:00, 12.70803
2024/05/12 06:02, 12.5771
2024/05/12 06:04, 12.643
2024/05/12 06:06, 12.68858
2024/05/12 06:08, 12.70063
2024/05/12 06:10, 12.70205
2024/05/12 06:12, 12.7024
2024/05/12 06:14, 12.70424
2024/05/12 06:16, 12.70253
2024/05/12 06:18, 12.70324
2024/05/12 06:20, 12.70181
2024/05/12 06:22, 12.70175
2024/05/12 06:24, 12.70094
2024/05/12 06:26, 12.69954
2024/05/12 06:28, 12.69996
2024/05/12 06:30, 12.69727
2024/05/12 06:32, 12.6937
2024/05/12 06:34, 12.69447
2024/05/12 06:36, 12.6885
2024/05/12 06:38, 12.69287
2024/05/12 06:40, 12.6921
2024/05/12 06:42, 12.68964
2024/05/12 06:44, 12.69217
2024/05/12 06:46, 12.69078
2024/05/12 06:48, 12.69132
2024/05/12 06:50, 12.69108
2024/05/12 06:52, 12.68883
2024/05/12 06:54, 12.68907
2024/05/12 06:56, 12.68779
2024/05/12 06:58, 12.68482
2024/05/12 07:00, 12.6774
2024/05/12 07:02, 12.54533
2024/05/12 07:04, 12.61135
2024/05/12 07:06, 12.66298
2024/05/12 07:08, 12.66798
2024/05/12 07:10, 12.66807
2024/05/12 07:12, 12.67074
2024/05/12 07:14, 12.67322
2024/05/12 07:16, 12.66904
2024/05/12 07:18, 12.6707
2024/05/12 07:20, 12.66816
2024/05/12 07:22, 12.67121
2024/05/12 07:24, 12.66869
2024/05/12 07:26, 12.66757
2024/05/12 07:28, 12.66747
2024/05/12 07:30, 12.66817
2024/05/12 07:32, 12.66148
2024/05/12 07:34, 12.66569
2024/05/12 07:36, 12.65613
2024/05/12 07:38, 12.66237
2024/05/12 07:40, 12.66189
2024/05/12 07:42, 12.66178
2024/05/12 07:44, 12.6632
2024/05/12 07:46, 12.66091
2024/05/12 07:48, 12.65977
2024/05/12 07:50, 12.65926
2024/05/12 07:52, 12.65842
2024/05/12 07:54, 12.6586
2024/05/12 07:56, 12.65617
2024/05/12 07:58, 12.65567
2024/05/12 08:00, 12.65005
2024/05/12 08:02, 12.51794
2024/05/12 08:04, 12.58649
2024/05/12 08:06, 12.63429
2024/05/12 08:08, 12.64229
2024/05/12 08:10, 12.64712
2024/05/12 08:12, 12.64841
2024/05/12 08:14, 12.64815
2024/05/12 08:16, 12.64935
2024/05/12 08:18, 12.65004
2024/05/12 08:20, 12.64711
2024/05/12 08:22, 12.64484
2024/05/12 08:24, 12.64661
2024/05/12 08:26, 12.64559
2024/05/12 08:28, 12.6449
2024/05/12 08:30, 12.64304
2024/05/12 08:32, 12.64025
2024/05/12 08:34, 12.64144
2024/05/12 08:36, 12.64065
2024/05/12 08:38, 12.64051
2024/05/12 08:40, 12.63434
2024/05/12 08:42, 12.64191
2024/05/12 08:44, 12.64146
2024/05/12 08:46, 12.64335
2024/05/12 08:48, 12.64263
2024/05/12 08:50, 12.64073
2024/05/12 08:52, 12.64276
2024/05/12 08:54, 12.63958
2024/05/12 08:56, 12.63996
2024/05/12 08:58, 12.63993
2024/05/12 09:00, 12.63339
2024/05/12 09:02, 12.50256
2024/05/12 09:04, 12.57653
2024/05/12 09:06, 12.61597
2024/05/12 09:08, 12.62862
2024/05/12 09:10, 12.62965
2024/05/12 09:12, 12.63195
2024/05/12 09:14, 12.6324
2024/05/12 09:16, 12.63394
2024/05/12 09:18, 12.63201
2024/05/12 09:20, 12.63255
2024/05/12 09:22, 12.63127
2024/05/12 09:24, 12.63343
2024/05/12 09:26, 12.63488
2024/05/12 09:28, 12.63087
2024/05/12 09:30, 12.63219
2024/05/12 09:32, 12.6308
2024/05/12 09:34, 12.63068
2024/05/12 09:36, 12.62832
2024/05/12 09:38, 12.62844
2024/05/12 09:40, 12.59758
2024/05/12 09:42, 12.62756
2024/05/12 09:44, 12.6284
2024/05/12 09:46, 12.62665
2024/05/12 09:48, 12.62901
2024/05/12 09:50, 12.62956
2024/05/12 09:52, 12.62747
2024/05/12 09:54, 12.62715
2024/05/12 09:56, 12.62594
2024/05/12 09:58, 12.62793
2024/05/12 10:00, 12.62262
2024/05/12 10:02, 12.48693
2024/05/12 10:04, 12.56398
2024/05/12 10:06, 12.60693
2024/05/12 10:08, 12.61523
2024/05/12 10:10, 12.62785
2024/05/12 10:12, 12.64802
2024/05/12 10:14, 12.66203
2024/05/12 10:16, 12.656
2024/05/12 10:18, 12.65058
2024/05/12 10:20, 12.66288
2024/05/12 10:22, 12.68186
2024/05/12 10:24, 12.70351
2024/05/12 10:26, 12.72326
2024/05/12 10:28, 12.72755
2024/05/12 10:30, 12.72848
2024/05/12 10:32, 12.73898
2024/05/12 10:34, 12.76032
2024/05/12 10:36, 12.77927
2024/05/12 10:38, 12.79917
2024/05/12 10:40, 12.82123
2024/05/12 10:42, 12.86412
2024/05/12 10:44, 12.90662
2024/05/12 10:46, 12.99319
2024/05/12 10:48, 13.08453
2024/05/12 10:50, 13.16277
2024/05/12 10:52, 13.25504
2024/05/12 10:54, 13.32553
2024/05/12 10:56, 13.393
2024/05/12 10:58, 13.4962
2024/05/12 11:00, 13.58101
2024/05/12 11:02, 13.51578
2024/05/12 11:04, 13.61795
2024/05/12 11:06, 13.79027
2024/05/12 11:08, 13.91277
2024/05/12 11:10, 13.96509
2024/05/12 11:12, 14.00004
2024/05/12 11:14, 14.00097
2024/05/12 11:16, 14.00564
2024/05/12 11:18, 14.00534
2024/05/12 11:20, 14.00814
2024/05/12 11:22, 14.01216
2024/05/12 11:24, 14.01012
2024/05/12 11:26, 14.01124
2024/05/12 11:28, 14.01394
2024/05/12 11:30, 14.0112
2024/05/12 11:32, 14.01408
2024/05/12 11:34, 14.0126
2024/05/12 11:36, 14.01444
2024/05/12 11:38, 14.00804
2024/05/12 11:40, 14.00718
2024/05/12 11:42, 14.01188
2024/05/12 11:44, 14.01487
2024/05/12 11:46, 14.01035
2024/05/12 11:48, 14.01122
2024/05/12 11:50, 14.01449
2024/05/12 11:52, 14.01436
2024/05/12 11:54, 14.01282
2024/05/12 11:56, 14.01111
2024/05/12 11:58, 14.0135
2024/05/12 12:00, 14.01459
2024/05/12 12:02, 13.95652
2024/05/12 12:04, 13.99663
2024/05/12 12:06, 14.00515
2024/05/12 12:08, 14.00802
2024/05/12 12:10, 14.01036
2024/05/12 12:12, 14.01349
2024/05/12 12:14, 14.0078
2024/05/12 12:16, 14.00009
2024/05/12 12:18, 14.00855
2024/05/12 12:20, 14.01142
2024/05/12 12:22, 14.01734
2024/05/12 12:24, 14.01467
2024/05/12 12:26, 14.00797
2024/05/12 12:28, 14.01206
2024/05/12 12:30, 14.01619
2024/05/12 12:32, 14.00851
2024/05/12 12:34, 13.99892
2024/05/12 12:36, 13.99667
2024/05/12 12:38, 13.99927
2024/05/12 12:40, 14.00803
2024/05/12 12:42, 14.00639
2024/05/12 12:44, 14.00201
2024/05/12 12:46, 14.00546
2024/05/12 12:48, 14.00664
2024/05/12 12:50, 14.01097
2024/05/12 12:52, 14.00704
2024/05/12 12:54, 14.00399
2024/05/12 12:56, 14.00796
2024/05/12 12:58, 14.01074
2024/05/12 13:00, 14.00782
2024/05/12 13:02, 13.94245
2024/05/12 13:04, 13.98537
2024/05/12 13:06, 14.00934
2024/05/12 13:08, 14.00788
2024/05/12 13:10, 14.00675
2024/05/12 13:12, 14.00315
2024/05/12 13:14, 14.01118
2024/05/12 13:16, 14.00796
2024/05/12 13:18, 14.00445
2024/05/12 13:20, 14.00546
2024/05/12 13:22, 14.0087
2024/05/12 13:24, 14.00068
2024/05/12 13:26, 14.00385
2024/05/12 13:28, 14.00568
2024/05/12 13:30, 14.01089
2024/05/12 13:32, 14.01218
2024/05/12 13:34, 14.00988
2024/05/12 13:36, 14.01128
2024/05/12 13:38, 14.01371
2024/05/12 13:40, 14.01421
2024/05/12 13:42, 14.01334
2024/05/12 13:44, 14.00582
2024/05/12 13:46, 14.00214
2024/05/12 13:48, 13.99879
2024/05/12 13:50, 14.00137
2024/05/12 13:52, 14.00008
2024/05/12 13:54, 14.00853
2024/05/12 13:56, 14.0071
2024/05/12 13:58, 14.00393
2024/05/12 14:00, 14.00508
2024/05/12 14:02, 13.9472
2024/05/12 14:04, 13.98072
2024/05/12 14:06, 14.00775
2024/05/12 14:08, 13.9999
2024/05/12 14:10, 14.00707
2024/05/12 14:12, 14.01276
2024/05/12 14:14, 14.00568
2024/05/12 14:16, 14.01161
2024/05/12 14:18, 14.00974
2024/05/12 14:20, 14.00909
2024/05/12 14:22, 14.01088
2024/05/12 14:24, 14.00964
2024/05/12 14:26, 14.00723
2024/05/12 14:28, 14.00988
2024/05/12 14:30, 14.01025
2024/05/12 14:32, 14.00859
2024/05/12 14:34, 14.00878
2024/05/12 14:36, 14.00758
2024/05/12 14:38, 14.00976
2024/05/12 14:40, 14.00871
2024/05/12 14:42, 14.01055
2024/05/12 14:44, 14.0101
2024/05/12 14:46, 14.00957
2024/05/12 14:48, 14.01046
2024/05/12 14:50, 14.01063
2024/05/12 14:52, 14.01117
2024/05/12 14:54, 14.01327
2024/05/12 14:56, 14.01159
2024/05/12 14:58, 14.01183
2024/05/12 15:00, 14.00379
2024/05/12 15:02, 13.949
2024/05/12 15:04, 13.9957
2024/05/12 15:06, 14.00809
2024/05/12 15:08, 14.01093
2024/05/12 15:10, 14.0129
2024/05/12 15:12, 14.0145
2024/05/12 15:14, 14.01355
2024/05/12 15:16, 14.01367
2024/05/12 15:18, 13.99384
2024/05/12 15:20, 13.9555
2024/05/12 15:22, 13.93226
2024/05/12 15:24, 13.93189
2024/05/12 15:26, 13.94464
2024/05/12 15:28, 13.9513
2024/05/12 15:30, 13.93649
2024/05/12 15:32, 13.92245
2024/05/12 15:34, 13.92852
2024/05/12 15:36, 13.92597
2024/05/12 15:38, 13.92499
2024/05/12 15:40, 13.92468
2024/05/12 15:42, 13.92293
2024/05/12 15:44, 13.92258
2024/05/12 15:46, 13.9188
2024/05/12 15:48, 13.91831
2024/05/12 15:50, 13.91867
2024/05/12 15:52, 13.92139
2024/05/12 15:54, 13.92176
2024/05/12 15:56, 13.92228
2024/05/12 15:58, 13.92452
2024/05/12 16:00, 13.91766
2024/05/12 16:02, 13.80954
2024/05/12 16:04, 13.85461
2024/05/12 16:06, 13.92097
2024/05/12 16:08, 13.92839
2024/05/12 16:10, 13.92829
2024/05/12 16:12, 13.95607
2024/05/12 16:14, 14.01175
2024/05/12 16:16, 14.01618
2024/05/12 16:18, 14.01551
2024/05/12 16:20, 14.01663
2024/05/12 16:22, 14.01498
2024/05/12 16:24, 14.01807
2024/05/12 16:26, 14.01866
2024/05/12 16:28, 14.01972
2024/05/12 16:30, 14.01457
2024/05/12 16:32, 14.02005
2024/05/12 16:34, 14.01913
2024/05/12 16:36, 14.01639
2024/05/12 16:38, 14.01741
2024/05/12 16:40, 14.01623
2024/05/12 16:42, 14.01359
2024/05/12 16:44, 14.01712
2024/05/12 16:46, 14.01898
2024/05/12 16:48, 14.01934
2024/05/12 16:50, 14.01866
2024/05/12 16:52, 14.01767
2024/05/12 16:54, 14.02013
2024/05/12 16:56, 14.02023
2024/05/12 16:58, 14.01653
2024/05/12 17:00, 14.01279
2024/05/12 17:02, 13.95791
2024/05/12 17:04, 13.99858
2024/05/12 17:06, 14.01337
2024/05/12 17:08, 14.02102
2024/05/12 17:10, 14.01602
2024/05/12 17:12, 14.02052
2024/05/12 17:14, 14.01979
2024/05/12 17:16, 14.02599
2024/05/12 17:18, 14.01593
2024/05/12 17:20, 14.01901
2024/05/12 17:22, 14.02115
2024/05/12 17:24, 14.01604
2024/05/12 17:26, 14.02034
2024/05/12 17:28, 14.02255
2024/05/12 17:30, 14.01685
2024/05/12 17:32, 14.01972
2024/05/12 17:34, 14.01934
2024/05/12 17:36, 14.0168
2024/05/12 17:38, 14.01966
2024/05/12 17:40, 14.02415
2024/05/12 17:42, 14.02209
2024/05/12 17:44, 14.01963
2024/05/12 17:46, 14.01736
2024/05/12 17:48, 14.02318
2024/05/12 17:50, 14.01565
2024/05/12 17:52, 14.02139
2024/05/12 17:54, 14.01805
2024/05/12 17:56, 14.01807
2024/05/12 17:58, 14.01655
2024/05/12 18:00, 14.02228
2024/05/12 18:02, 13.96162
2024/05/12 18:04, 14.00589
2024/05/12 18:06, 14.01885
2024/05/12 18:08, 14.02455
2024/05/12 18:10, 14.02017
2024/05/12 18:12, 14.02262
2024/05/12 18:14, 14.02313
2024/05/12 18:16, 14.01824
2024/05/12 18:18, 14.02085
2024/05/12 18:20, 14.01943
2024/05/12 18:22, 14.01932
2024/05/12 18:24, 14.02205
2024/05/12 18:26, 14.02424
2024/05/12 18:28, 14.0192
2024/05/12 18:30, 14.02045
2024/05/12 18:32, 14.02147
2024/05/12 18:34, 14.01945
2024/05/12 18:36, 14.02066
2024/05/12 18:38, 14.02134
2024/05/12 18:40, 14.02081
2024/05/12 18:42, 14.01852
2024/05/12 18:44, 14.01951
2024/05/12 18:46, 14.01653
2024/05/12 18:48, 14.01856
2024/05/12 18:50, 14.01583
2024/05/12 18:52, 14.01959
2024/05/12 18:54, 14.01954
2024/05/12 18:56, 14.01513
2024/05/12 18:58, 14.01778
2024/05/12 19:00, 14.01523
2024/05/12 19:02, 13.97039
2024/05/12 19:04, 13.99781
2024/05/12 19:06, 14.01841
2024/05/12 19:08, 14.02215
2024/05/12 19:10, 14.02098
2024/05/12 19:12, 14.018
2024/05/12 19:14, 14.02161
2024/05/12 19:16, 14.02257
2024/05/12 19:18, 14.02443
2024/05/12 19:20, 14.02067
2024/05/12 19:22, 14.02555
2024/05/12 19:24, 14.02155
2024/05/12 19:26, 14.02168
2024/05/12 19:28, 14.0242
2024/05/12 19:30, 14.02391
2024/05/12 20:02, 13.9281
2024/05/12 20:04, 13.98562
2024/05/12 20:06, 14.01875
2024/05/12 20:08, 13.9864
2024/05/12 20:10, 13.92785
2024/05/12 20:12, 13.92463
2024/05/12 20:14, 13.927
2024/05/12 20:16, 13.92837
2024/05/12 20:18, 13.92972
2024/05/12 20:20, 13.93779
2024/05/12 20:22, 13.96731
2024/05/12 20:24, 13.9263
2024/05/12 20:26, 13.93044
2024/05/12 20:28, 13.93225
2024/05/12 20:30, 13.93192
2024/05/12 20:32, 13.93078
2024/05/12 20:34, 13.93173
2024/05/12 20:36, 13.92893
2024/05/12 20:38, 13.92724
2024/05/12 20:40, 13.96552
2024/05/12 20:42, 14.02428
2024/05/12 20:44, 14.02382
2024/05/12 20:46, 14.0217
2024/05/12 20:48, 14.02115
2024/05/12 20:50, 14.02142
2024/05/12 20:52, 14.01993
2024/05/12 20:54, 14.02009
2024/05/12 20:56, 14.0171
2024/05/12 20:58, 14.02171
2024/05/12 21:00, 14.01919
2024/05/12 21:02, 13.78912
2024/05/12 21:04, 13.73906
2024/05/12 21:06, 13.9279
2024/05/12 21:08, 13.9865
2024/05/12 21:10, 14.02332
2024/05/12 21:12, 14.02263
2024/05/12 21:14, 14.02474
2024/05/12 21:16, 14.02202
2024/05/12 21:18, 14.02361
2024/05/12 21:20, 14.0236
2024/05/12 21:22, 14.02354
2024/05/12 21:24, 14.02647
2024/05/12 21:26, 14.02274
2024/05/12 21:28, 14.02506
2024/05/12 21:30, 14.02335
2024/05/12 21:32, 14.02403
2024/05/12 21:34, 14.02347
2024/05/12 21:36, 14.02303
2024/05/12 21:38, 14.0243
2024/05/12 21:40, 14.02419
2024/05/12 21:42, 14.02367
2024/05/12 21:44, 14.02562
2024/05/12 21:46, 14.02384
2024/05/12 21:48, 14.02578
2024/05/12 21:50, 14.02736
2024/05/12 21:52, 14.02274
2024/05/12 21:54, 14.02581
2024/05/12 21:56, 14.02435
2024/05/12 21:58, 14.02371
2024/05/12 22:00, 14.02108
2024/05/12 22:02, 13.84274
2024/05/12 22:04, 13.87341
2024/05/12 22:06, 13.92719
2024/05/12 22:08, 13.92904
2024/05/12 22:10, 13.93029
2024/05/12 22:12, 13.92988
2024/05/12 22:14, 13.92834
2024/05/12 22:16, 13.92788
2024/05/12 22:18, 13.92782
2024/05/12 22:20, 13.92772
2024/05/12 22:22, 13.92732
2024/05/12 22:24, 13.92584
2024/05/12 22:26, 13.92482
2024/05/12 22:28, 13.9254
2024/05/12 22:30, 13.9249
2024/05/12 22:32, 13.92449
2024/05/12 22:34, 13.92475
2024/05/12 22:36, 13.91967
2024/05/12 22:38, 13.92351
2024/05/12 22:40, 13.92173
2024/05/12 22:42, 13.92264
2024/05/12 22:44, 13.91723
2024/05/12 22:46, 13.8805
2024/05/12 22:48, 13.8258
2024/05/12 22:50, 13.73924
2024/05/12 22:52, 13.66187
2024/05/12 22:54, 13.61005
2024/05/12 22:56, 13.59081
2024/05/12 22:58, 13.58358
2024/05/12 23:00, 13.56162
2024/05/12 23:02, 13.3406
2024/05/12 23:04, 13.3477
2024/05/12 23:06, 13.44544
2024/05/12 23:08, 13.52234
2024/05/12 23:10, 13.64256
2024/05/12 23:12, 13.81432
2024/05/12 23:14, 13.84963
2024/05/12 23:16, 13.91208
2024/05/12 23:18, 13.92269
2024/05/12 23:20, 13.9202
2024/05/12 23:22, 13.92208
2024/05/12 23:24, 13.91573
2024/05/12 23:26, 13.85752
2024/05/12 23:28, 13.75766
2024/05/12 23:30, 13.65007
2024/05/12 23:32, 13.57008
2024/05/12 23:34, 13.51408
2024/05/12 23:36, 13.44499
2024/05/12 23:38, 13.41291
2024/05/12 23:40, 13.37712
2024/05/12 23:42, 13.352
2024/05/12 23:44, 13.32475
2024/05/12 23:46, 13.30151
2024/05/12 23:48, 13.2799
2024/05/12 23:50, 13.26314
2024/05/12 23:52, 13.24206
2024/05/12 23:54, 13.22901
2024/05/12 23:56, 13.21731
2024/05/12 23:58, 13.21212
2024/05/13 00:00, 13.20526
2024/05/13 00:02, 13.068
2024/05/13 00:04, 13.12816
2024/05/13 00:06, 13.16855
2024/05/13 00:08, 13.1741
2024/05/13 00:10, 13.17488
2024/05/13 00:12, 13.16937
2024/05/13 00:14, 13.16101
2024/05/13 00:16, 13.15223
2024/05/13 00:18, 13.14328
2024/05/13 00:20, 13.13463
2024/05/13 00:22, 13.12072
2024/05/13 00:24, 13.1058
2024/05/13 00:26, 13.08788
2024/05/13 00:28, 13.06992
2024/05/13 00:30, 13.05629
2024/05/13 00:32, 13.03916
2024/05/13 00:34, 13.02675
2024/05/13 00:36, 13.00596
2024/05/13 00:38, 12.9894
2024/05/13 00:40, 12.98514
2024/05/13 00:42, 12.98187
2024/05/13 00:44, 12.97757
2024/05/13 00:46, 12.96932
2024/05/13 00:48, 12.95562
2024/05/13 00:50, 12.93802
2024/05/13 00:52, 12.92824
2024/05/13 00:54, 12.91555
2024/05/13 00:56, 12.90974
2024/05/13 00:58, 12.90307
2024/05/13 01:00, 12.88916
2024/05/13 01:02, 12.75278
2024/05/13 01:04, 12.82803
2024/05/13 01:06, 12.8676
2024/05/13 01:08, 12.86889
2024/05/13 01:10, 12.8643
2024/05/13 01:12, 12.86407
2024/05/13 01:14, 12.85991
2024/05/13 01:16, 12.85614
2024/05/13 01:18, 12.85445
2024/05/13 01:20, 12.851
2024/05/13 01:22, 12.84777
2024/05/13 01:24, 12.84774
2024/05/13 01:26, 12.84342
2024/05/13 01:28, 12.83967
2024/05/13 01:30, 12.83969
2024/05/13 01:32, 12.8332
2024/05/13 01:34, 12.8331
2024/05/13 01:36, 12.82937
2024/05/13 01:38, 12.82832
2024/05/13 01:40, 12.8095
2024/05/13 01:42, 12.82656
2024/05/13 01:44, 12.82558
2024/05/13 01:46, 12.82554
2024/05/13 01:48, 12.8228
2024/05/13 01:50, 12.82077
2024/05/13 01:52, 12.81945
2024/05/13 01:54, 12.81773
2024/05/13 01:56, 12.81498
2024/05/13 01:58, 12.81653
2024/05/13 02:00, 12.80982
2024/05/13 02:02, 12.67467
2024/05/13 02:04, 12.74861
2024/05/13 02:06, 12.79336
2024/05/13 02:08, 12.79943
2024/05/13 02:10, 12.80078
2024/05/13 02:12, 12.80184
2024/05/13 02:14, 12.80275
2024/05/13 02:16, 12.8001
2024/05/13 02:18, 12.80088
2024/05/13 02:20, 12.80102
2024/05/13 02:22, 12.80016
2024/05/13 02:24, 12.80034
2024/05/13 02:26, 12.79945
2024/05/13 02:28, 12.79651
2024/05/13 02:30, 12.79735
2024/05/13 02:32, 12.79384
2024/05/13 02:34, 12.79559
2024/05/13 02:36, 12.78558
2024/05/13 02:38, 12.79344
2024/05/13 02:40, 12.79218
2024/05/13 02:42, 12.7931
2024/05/13 02:44, 12.79089
2024/05/13 02:46, 12.7933
2024/05/13 02:48, 12.7921
2024/05/13 02:50, 12.79173
2024/05/13 02:52, 12.79093
2024/05/13 02:54, 12.79323
2024/05/13 02:56, 12.79216
2024/05/13 02:58, 12.79269
2024/05/13 03:00, 12.7866
2024/05/13 03:02, 12.64539
2024/05/13 03:04, 12.71976
2024/05/13 03:06, 12.76769
2024/05/13 03:08, 12.77245
2024/05/13 03:10, 12.77345
2024/05/13 03:12, 12.77833
2024/05/13 03:14, 12.7779
2024/05/13 03:16, 12.7781
2024/05/13 03:18, 12.77635
2024/05/13 03:20, 12.77767
2024/05/13 03:22, 12.77698
2024/05/13 03:24, 12.77666
2024/05/13 03:26, 12.77633
2024/05/13 03:28, 12.7747
2024/05/13 03:30, 12.7743
2024/05/13 03:32, 12.77257
2024/05/13 03:34, 12.77288
2024/05/13 03:36, 12.76615
2024/05/13 03:38, 12.77127
2024/05/13 03:40, 12.77387
2024/05/13 03:42, 12.77085
2024/05/13 03:44, 12.77125
2024/05/13 03:46, 12.76639
2024/05/13 03:48, 12.76815
2024/05/13 03:50, 12.76799
2024/05/13 03:52, 12.7645
2024/05/13 03:54, 12.76504
2024/05/13 03:56, 12.76478
2024/05/13 03:58, 12.76436
2024/05/13 04:00, 12.75729
2024/05/13 04:02, 12.6132
2024/05/13 04:04, 12.68724
2024/05/13 04:06, 12.73712
2024/05/13 04:08, 12.74809
2024/05/13 04:10, 12.75119
2024/05/13 04:12, 12.75318
2024/05/13 04:14, 12.75449
2024/05/13 04:16, 12.75332
2024/05/13 04:18, 12.75466
2024/05/13 04:20, 12.75231